TOPSWRTT 000
TTAA00 KICT 061612

Wichita AWIPS Roundup
National Weather Service Wichita KS
1000 AM CST FRI MAR 06 2015

....Central Kansas....
  
CITY           SKY/WX    TMP DP  RH WIND       PRES   REMARKS
RUSSELL        SUNNY     43  23  45 W7        30.30R WCI  39          
SALINA         SUNNY     43  23  45 SW9       30.33S WCI  38          
GREAT BEND     SUNNY     45  25  45 W8        30.33S                  
ELLSWORTH      SUNNY     46  25  42 W9        30.31S                  
MCPHERSON      SUNNY     43  27  52 SW10      30.34S WCI  37          
HAYS           SUNNY     46  21  36 NW6       30.32S                  

....South Central Kansas....
  
CITY           SKY/WX    TMP DP  RH WIND       PRES   REMARKS
HUTCHINSON     SUNNY     41  27  57 W9        30.35S WCI  35          
NEWTON         SUNNY     37  25  60 SW16      30.36S WCI  28          
KINGMAN        SUNNY     46  30  53 SW10      30.36S                  
WICHITA (ICT)  MOSUNNY   40  25  55 SW13      30.38R WCI  32          
JABARA ARPT    SUNNY     40  25  55 SW14      30.37S WCI  32          
MCCONNELL AFB  SUNNY     40  25  54 S13       30.38R WCI  33          
BENTON         FAIR      39  26  57 SW10      30.37F WCI  33          
EL DORADO      FAIR      41  27  56 SW14      30.37S WCI  33          
HARPER           N/A     40  27  60 SW14      30.39S WCI  32          
WELLINGTON     SUNNY     43  27  52 SW13G20   30.41S WCI  36          
WINFIELD       SUNNY     40  25  55 SW14      30.43R WCI  32          
 
....Southeast Kansas....
  
CITY           SKY/WX    TMP DP  RH WIND       PRES   REMARKS
EUREKA         SUNNY     46  27  46 SW15      30.36S                  
CHANUTE        SUNNY     39  23  52 SW15      30.41S WCI  31          
PARSONS        SUNNY     40  23  50 SW15      30.44S WCI  32          
COFFEYVILLE    SUNNY     40  22  48 SW14G26   30.45S WCI  32          
INDEPENDENCE   SUNNY     39  23  52 SW18G25   30.44S WCI  30          
FORT SCOTT     SUNNY     43  25  49 SW20G26   30.40S WCI  34          
PITTSBURG      SUNNY     40  25  55 SW21      30.42S WCI  30          

....Western Kansas....
  
CITY           SKY/WX    TMP DP  RH WIND       PRES   REMARKS
GOODLAND       SUNNY     48  21  34 W13       30.31R                  
HILL CITY      SUNNY     45  22  40 W8        30.30R                  
LIBERAL        SUNNY     41  28  60 NW10      30.38R WCI  35          
GARDEN CITY    SUNNY     40  24  53 SW7       30.33R WCI  35          
DODGE CITY     SUNNY     43  25  49 W9        30.35R WCI  38          
PRATT          SUNNY     43  30  61 W10       30.36R WCI  37          
MEDICINE LODGE   N/A     42  28  57 SW3       30.37F                  

....Northeast Kansas....
  
CITY           SKY/WX    TMP DP  RH WIND       PRES   REMARKS
CONCORDIA      SUNNY     43  19  38 W10       30.28S WCI  37          
TOPEKA         SUNNY     42  22  44 SW12      30.32F WCI  36          
MANHATTAN      SUNNY     42  25  50 SW10      30.32S WCI  36          
LAWRENCE       SUNNY     41  22  46 SW13      30.34S WCI  34          
OLATHE         SUNNY     38  22  52 SW13G22   30.33R WCI  30          
EMPORIA        SUNNY     43  25  49 W10       30.34S WCI  37          

....Oklahoma....
  
CITY           SKY/WX    TMP DP  RH WIND       PRES   REMARKS
GAGE           SUNNY     43  28  55 SW12      30.38S WCI  37          
PONCA CITY     SUNNY     41  24  51 SW14      30.44S WCI  33          
BARTLESVILLE   SUNNY     42  22  44 SW13      30.48S WCI  35          
TULSA          SUNNY     42  20  41 SW15G23   30.50R WCI  34          
OKLAHOMA CITY  SUNNY     42  22  44 S17       30.49S WCI  34          

Note: "fair" indicates few or no clouds below 12,000 feet with no
significant weather and/or obstructions to visibility.

USA.gov is the U.S. government's official web portal to all federal, state and local government web resources and services.